• In Hungary
  • List of Countries
  • For 7 days
  • Water Temperature
  • Satellite Maps
  • Weather Map
  • News
  • Weather Widgets
  • user-avatar
    Login

    Hourly Weather Pianki

    Today, 24 February, Saturday

    Time Temperature Precipitation Wind Pressure Humidity
    00:00 -9°C° 0.2 mm 3 mps 753 mmHg 82%
    01:00 -9°C° 0.2 mm 3 mps 753 mmHg 87%
    02:00 -10°C° 0.2 mm 4 mps 754 mmHg 87%
    03:00 -10°C° 0.2 mm 4 mps 754 mmHg 88%
    04:00 -12°C° 0.2 mm 5 mps 754 mmHg 88%
    05:00 -12°C° 0.1 mm 5 mps 755 mmHg 85%
    06:00 -14°C° 0.1 mm 6 mps 755 mmHg 82%
    07:00 -15°C° 0.1 mm 6 mps 756 mmHg 80%
    08:00 -15°C° 0 mm 6 mps 757 mmHg 76%
    09:00 -15°C° 0 mm 6 mps 757 mmHg 73%
    10:00 -15°C° 0 mm 6 mps 758 mmHg 70%
    11:00 -14°C° 0 mm 6 mps 758 mmHg 69%
    12:00 -14°C° 0 mm 6 mps 759 mmHg 68%
    13:00 -12°C° 0 mm 6 mps 759 mmHg 67%
    14:00 -14°C° 0 mm 6 mps 759 mmHg 68%
    15:00 -14°C° 0 mm 6 mps 759 mmHg 70%
    16:00 -14°C° 0 mm 6 mps 759 mmHg 71%
    17:00 -14°C° 0 mm 5 mps 759 mmHg 74%
    18:00 -14°C° 0 mm 5 mps 760 mmHg 76%
    19:00 -15°C° 0 mm 5 mps 760 mmHg 79%
    20:00 -15°C° 0 mm 5 mps 760 mmHg 80%
    21:00 -15°C° 0 mm 4 mps 760 mmHg 81%
    22:00 -15°C° 0 mm 4 mps 760 mmHg 82%
    23:00 -16°C° 0 mm 4 mps 760 mmHg 83%

    Tomorrow, 25 February, Sunday

    Time Temperature Precipitation Wind Pressure Humidity
    00:00 -15°C° 0 mm 3 mps 761 mmHg 85%
    01:00 -15°C° 0 mm 3 mps 761 mmHg 86%
    02:00 -15°C° 0 mm 3 mps 761 mmHg 87%
    03:00 -16°C° 0 mm 3 mps 760 mmHg 89%
    04:00 -16°C° 0 mm 3 mps 760 mmHg 90%
    05:00 -16°C° 0 mm 3 mps 761 mmHg 90%
    06:00 -16°C° 0 mm 3 mps 761 mmHg 90%
    07:00 -16°C° 0 mm 3 mps 761 mmHg 90%
    08:00 -16°C° 0 mm 3 mps 761 mmHg 85%
    09:00 -15°C° 0 mm 3 mps 761 mmHg 81%
    10:00 -14°C° 0 mm 3 mps 761 mmHg 76%
    11:00 -14°C° 0 mm 3 mps 761 mmHg 73%
    12:00 -13°C° 0 mm 3 mps 761 mmHg 71%
    13:00 -12°C° 0 mm 3 mps 761 mmHg 68%
    14:00 -13°C° 0 mm 3 mps 760 mmHg 69%
    15:00 -13°C° 0 mm 3 mps 760 mmHg 70%
    16:00 -13°C° 0 mm 3 mps 760 mmHg 71%
    17:00 -14°C° 0 mm 3 mps 760 mmHg 74%
    18:00 -14°C° 0 mm 3 mps 760 mmHg 77%
    19:00 -16°C° 0 mm 4 mps 760 mmHg 79%
    20:00 -15°C° 0 mm 3 mps 761 mmHg 80%
    21:00 -16°C° 0 mm 3 mps 761 mmHg 81%
    22:00 -16°C° 0 mm 3 mps 761 mmHg 82%
    23:00 -16°C° 0 mm 3 mps 761 mmHg 83%

    Day after tomorrow, 26 February, Monday

    Time Temperature Precipitation Wind Pressure Humidity
    00:00 -16°C° 0 mm 3 mps 761 mmHg 84%
    01:00 -16°C° 0 mm 2 mps 761 mmHg 85%
    02:00 -16°C° 0 mm 2 mps 760 mmHg 86%
    03:00 -16°C° 0 mm 2 mps 760 mmHg 87%
    04:00 -17°C° 0 mm 3 mps 760 mmHg 88%
    05:00 -17°C° 0 mm 3 mps 760 mmHg 89%
    06:00 -17°C° 0 mm 3 mps 760 mmHg 89%
    07:00 -17°C° 0 mm 3 mps 760 mmHg 89%
    08:00 -16°C° 0 mm 3 mps 760 mmHg 84%
    09:00 -15°C° 0 mm 3 mps 760 mmHg 79%
    10:00 -15°C° 0 mm 3 mps 760 mmHg 74%
    11:00 -14°C° 0 mm 3 mps 760 mmHg 71%
    12:00 -12°C° 0 mm 2 mps 759 mmHg 68%
    13:00 -10°C° 0 mm 2 mps 759 mmHg 65%
    14:00 -10°C° 0 mm 2 mps 759 mmHg 66%
    15:00 -10°C° 0 mm 2 mps 758 mmHg 67%
    16:00 -10°C° 0 mm 2 mps 758 mmHg 68%
    17:00 -12°C° 0 mm 2 mps 758 mmHg 73%
    18:00 -12°C° 0 mm 2 mps 758 mmHg 77%
    19:00 -13°C° 0 mm 2 mps 758 mmHg 81%
    20:00 -11°C° 0 mm 1 mps 758 mmHg 84%
    21:00 -11°C° 0 mm 1 mps 758 mmHg 86%
    22:00 -11°C° 0 mm 1 mps 758 mmHg 88%
    23:00 -11°C° 0 mm 1 mps 757 mmHg 89%

    27 February, Tuesday

    Time Temperature Precipitation Wind Pressure Humidity
    00:00 -12°C° 0 mm 1 mps 757 mmHg 90%
    01:00 -12°C° 0 mm 1 mps 757 mmHg 91%
    02:00 -12°C° 0 mm 1 mps 757 mmHg 92%
    03:00 -12°C° 0 mm 1 mps 756 mmHg 92%
    04:00 -15°C° 0 mm 2 mps 756 mmHg 93%
    05:00 -15°C° 0 mm 2 mps 756 mmHg 92%
    06:00 -15°C° 0 mm 2 mps 756 mmHg 91%
    07:00 -16°C° 0 mm 3 mps 756 mmHg 90%
    08:00 -16°C° 0 mm 3 mps 756 mmHg 82%
    09:00 -16°C° 0 mm 4 mps 757 mmHg 74%
    10:00 -15°C° 0 mm 4 mps 757 mmHg 67%
    11:00 -15°C° 0 mm 4 mps 757 mmHg 64%
    12:00 -14°C° 0 mm 4 mps 757 mmHg 62%
    13:00 -14°C° 0 mm 5 mps 757 mmHg 60%
    14:00 -14°C° 0 mm 5 mps 757 mmHg 62%
    15:00 -14°C° 0 mm 5 mps 757 mmHg 64%
    16:00 -15°C° 0 mm 5 mps 757 mmHg 66%
    17:00 -15°C° 0 mm 5 mps 757 mmHg 69%
    18:00 -17°C° 0 mm 5 mps 757 mmHg 72%
    19:00 -17°C° 0 mm 5 mps 757 mmHg 75%
    20:00 -18°C° 0 mm 5 mps 757 mmHg 76%
    21:00 -18°C° 0 mm 5 mps 757 mmHg 77%
    22:00 -18°C° 0 mm 5 mps 758 mmHg 78%
    23:00 -19°C° 0 mm 5 mps 757 mmHg 79%

    28 February, Wednesday

    Time Temperature Precipitation Wind Pressure Humidity
    00:00 -19°C° 0 mm 5 mps 757 mmHg 80%
    01:00 -19°C° 0 mm 5 mps 757 mmHg 81%
    02:00 -19°C° 0 mm 5 mps 757 mmHg 81%
    03:00 -19°C° 0 mm 5 mps 757 mmHg 82%
    04:00 -19°C° 0 mm 5 mps 757 mmHg 82%
    05:00 -19°C° 0.1 mm 5 mps 757 mmHg 83%
    06:00 -19°C° 0.1 mm 5 mps 757 mmHg 84%
    07:00 -19°C° 0.1 mm 5 mps 757 mmHg 84%
    08:00 -19°C° 0.1 mm 5 mps 757 mmHg 82%
    09:00 -18°C° 0.1 mm 5 mps 757 mmHg 80%
    10:00 -17°C° 0.1 mm 5 mps 757 mmHg 78%
    11:00 -17°C° 0.1 mm 5 mps 756 mmHg 77%
    12:00 -15°C° 0.1 mm 5 mps 756 mmHg 76%
    13:00 -14°C° 0.1 mm 5 mps 756 mmHg 75%
    14:00 -14°C° 0.1 mm 5 mps 755 mmHg 75%
    15:00 -14°C° 0.1 mm 4 mps 755 mmHg 76%
    16:00 -14°C° 0.1 mm 4 mps 755 mmHg 77%
    17:00 -15°C° 0.1 mm 4 mps 755 mmHg 79%
    18:00 -14°C° 0.1 mm 3 mps 755 mmHg 82%
    19:00 -14°C° 0.1 mm 3 mps 755 mmHg 84%
    20:00 -15°C° 0 mm 3 mps 755 mmHg 86%
    21:00 -14°C° 0 mm 2 mps 755 mmHg 88%
    22:00 -14°C° 0 mm 2 mps 755 mmHg 90%
    23:00 -15°C° 0 mm 2 mps 755 mmHg 91%

    1 March, Thursday

    Time Temperature Precipitation Wind Pressure Humidity
    00:00 -15°C° 0 mm 2 mps 755 mmHg 92%
    01:00 -15°C° 0 mm 2 mps 755 mmHg 93%
    02:00 -15°C° 0 mm 2 mps 755 mmHg 94%
    03:00 -16°C° 0 mm 2 mps 755 mmHg 94%
    04:00 -16°C° 0 mm 2 mps 754 mmHg 95%
    05:00 -16°C° 0 mm 2 mps 755 mmHg 95%
    06:00 -14°C° 0 mm 1 mps 755 mmHg 94%
    07:00 -14°C° 0 mm 1 mps 755 mmHg 94%
    08:00 -15°C° 0 mm 2 mps 755 mmHg 88%
    09:00 -13°C° 0 mm 2 mps 754 mmHg 82%
    10:00 -12°C° 0 mm 2 mps 754 mmHg 75%
    11:00 -10°C° 0 mm 2 mps 754 mmHg 72%
    12:00 -10°C° 0 mm 2 mps 754 mmHg 69%
    13:00 -9°C° 0 mm 2 mps 753 mmHg 66%
    14:00 -9°C° 0 mm 2 mps 753 mmHg 67%
    15:00 -9°C° 0 mm 2 mps 753 mmHg 68%
    16:00 -9°C° 0 mm 2 mps 753 mmHg 69%
    17:00 -10°C° 0 mm 2 mps 752 mmHg 74%
    18:00 -10°C° 0 mm 2 mps 752 mmHg 79%
    19:00 -13°C° 0 mm 3 mps 752 mmHg 84%
    20:00 -14°C° 0 mm 3 mps 752 mmHg 85%
    21:00 -14°C° 0 mm 3 mps 752 mmHg 86%
    22:00 -14°C° 0 mm 3 mps 751 mmHg 87%
    23:00 -14°C° 0 mm 3 mps 751 mmHg 87%
    Show more